Location: Vinland
(47.7731°N, 122.6974°W)
Time: 19:51:48
(UTC+00:00)

Vanguard 1 Rocket - Pass Details

Date: 23 March 2023
Orbit: 655 x 4220 km, 34.3° (Epoch: 05 June)

Event Time Altitude Azimuth Distance (km) Brightness Sun altitude
Rises 03:36:38 0° 177° (S) 8,453 12.1 -12.5°
Reaches altitude 10° 03:49:36 10° 153° (SSE) 7,160 11.5 -14.5°
Maximum altitude 03:56:11 12° 136° (SE) 6,662 11.2 -15.6°
Enters shadow 03:57:19 12° 133° (SE) 6,596 11.2 -15.8°
